Retour au catalogue

THOR ABLESTAR DEB

ActifLEO
NORAD 19302·DEBRIS·🇺🇸 United States

Lancé Jun 29, 1961 depuis Cape Canaveral Space Force Station

Loading…

Prochains Passages (prochaines 24 heures)

TLE

FraisSource: Space-Track

Époque: Sep 14, 2026, 09:48 UTC

1 19302U 61015MC  26257.40877091  .00000302  00000-0  20725-3 0  9990
2 19302  66.8435 302.1404 0060504 271.5511  87.8648 14.11530036967445

Suivez THOR ABLESTAR DEB en temps réel avec AllMySat

Download on the App Store